This demonstration page uses our WeatherBlox Daily Observations layout. Learn more.

Left ArrowRight Arrow

Hourly Observations for June 13, 2021

Temp ( °F °C ) Dew Point ( °F °C ) Humidity (%) Winds ( mph kmh ) Pressure ( in mb ) Visibility ( mi km ) Precip ( " mm )
12:15 am 00:15 Clear 61 16.1 51 10.5 70 70 ESE 3 6 30.03 1017 7 11 N/A
12:35 am 00:35 Clear 63 17.3 51 10.4 64 64 E 5 7 30.02 1016 10 16 N/A
12:55 am 00:55 Clear 61 16.2 51 10.4 69 69 ESE 3 6 30.03 1017 10 16 N/A
1:15 am 01:15 Clear 60 15.6 51 10.3 71 71 E 3 6 30.04 1017 10 16 N/A
1:35 am 01:35 Clear 59 14.8 51 10.5 76 76 S 3 6 30.06 1018 10 16 N/A
1:55 am 01:55 Clear 59 15.1 51 10.6 75 75 SSE 3 6 30.04 1017 10 16 N/A
2:15 am 02:15 Clear 56 13.6 50 10.2 80 80 N N/A 30.05 1018 10 16 N/A
2:35 am 02:35 Clear 59 15.1 51 10.5 74 74 N N/A 30.03 1017 10 16 N/A
2:55 am 02:55 Clear 60 15.5 51 10.5 72 72 N N/A 30.03 1017 10 16 N/A
3:15 am 03:15 Clear 59 15 51 10.3 74 74 SE 5 7 30.06 1018 10 16 N/A
3:35 am 03:35 Clear 60 15.3 51 10.4 73 73 ESE 5 7 30.05 1018 10 16 N/A
3:55 am 03:55 Clear 61 16 51 10.7 71 71 ESE 6 9 30.05 1017 10 16 N/A
4:15 am 04:15 Clear 61 16.1 52 11 72 72 SE 6 9 30.06 1018 10 16 N/A
4:35 am 04:35 Clear 59 15 52 11 77 77 SE 5 7 30.07 1018 10 16 N/A
4:55 am 04:55 Clear 59 15.1 52 11 77 77 ESE 5 7 30.06 1018 10 16 N/A
5:15 am 05:15 Clear 59 14.8 52 11.1 79 79 ESE 6 9 30.07 1018 10 16 N/A
5:35 am 05:35 Clear 58 14.6 52 11 79 79 SE 5 7 30.08 1019 10 16 N/A
5:55 am 05:55 Clear 59 14.9 52 11.2 79 79 SSE 6 9 30.07 1018 10 16 N/A
6:15 am 06:15 Sunny 57 14 52 11.1 83 83 ESE 3 6 30.08 1019 10 16 N/A
6:35 am 06:35 Sunny 60 15.7 53 11.5 76 76 SE 5 7 30.08 1019 10 16 N/A
6:55 am 06:55 Sunny 59 15 53 11.6 80 80 SSE 3 6 30.09 1019 10 16 N/A
7:15 am 07:15 Sunny 61 15.9 56 13.3 85 85 SE 3 6 30.08 1019 10 16 N/A
7:35 am 07:35 Sunny 66 18.7 55 13 70 70 SSE 6 9 30.05 1018 10 16 N/A
7:55 am 07:55 Sunny 67 19.6 56 13.5 68 68 SSE 6 9 30.05 1017 10 16 N/A
8:15 am 08:15 Sunny 69 20.8 57 13.7 64 64 SSE 8 13 30.04 1017 10 16 N/A
8:35 am 08:35 Sunny 72 22.1 57 14 60 60 SSE 8 13 30.04 1017 10 16 N/A
8:55 am 08:55 Sunny 74 23.1 57 13.9 56 56 S 10 17 30.04 1017 10 16 N/A
9:15 am 09:15 Sunny 75 24.1 58 14.3 54 54 SSE 12 19 30.04 1017 10 16 N/A
9:35 am 09:35 Sunny 77 25.1 57 14.1 51 51 S 17 28 30.03 1017 10 16 N/A
9:55 am 09:55 Sunny 78 25.5 58 14.2 50 50 S 14 22 30.03 1017 10 16 N/A
10:15 am 10:15 Sunny 79 26.1 58 14.3 48 48 SSE 14 22 30.02 1017 10 16 N/A
10:35 am 10:35 Sunny 80 26.8 58 14.4 47 47 S 14 22 30.01 1016 10 16 N/A
10:55 am 10:55 Sunny 82 27.5 58 14.5 45 45 SSE 12 19 30.00 1016 10 16 N/A
11:15 am 11:15 Sunny 82 28 58 14.7 44 44 SSE 9 15 29.99 1016 10 16 N/A
11:35 am 11:35 Sunny 83 28.5 58 14.5 42 42 S 12 19 29.99 1016 10 16 N/A
11:55 am 11:55 Sunny 84 29 59 15 43 43 SSE 12 19 29.99 1015 10 16 N/A
12:15 pm 12:15 Sunny 85 29.2 59 15 42 42 SSE 9 15 29.98 1015 10 16 N/A
12:35 pm 12:35 Sunny 86 30.1 61 15.9 42 42 SSW 12 19 29.97 1015 10 16 N/A
12:55 pm 12:55 Sunny 86 30.1 61 16.3 43 43 S 10 17 29.96 1014 10 16 N/A
1:15 pm 13:15 Sunny 87 30.6 62 16.6 43 43 S 8 13 29.95 1014 10 16 N/A
1:35 pm 13:35 Sunny 87 30.7 62 16.9 43 43 S 10 17 29.94 1014 10 16 N/A
1:55 pm 13:55 Sunny 88 31.3 63 17 42 42 SSW 9 15 29.93 1013 10 16 N/A
2:15 pm 14:15 Sunny 88 31.3 63 17.3 43 43 S 10 17 29.93 1013 10 16 N/A
2:35 pm 14:35 Sunny 89 31.8 62 16.7 40 40 S 12 19 29.91 1013 10 16 N/A
2:55 pm 14:55 Sunny 90 32.2 63 17.2 41 41 SSE 9 15 29.91 1013 10 16 N/A
3:15 pm 15:15 Sunny 90 32 62 16.7 40 40 SSE 13 20 29.90 1013 10 16 N/A
3:35 pm 15:35 Sunny 90 32.2 62 16.4 39 39 S 10 17 29.89 1012 10 16 N/A
3:55 pm 15:55 Sunny 91 32.9 60 15.4 35 35 SE 12 19 29.89 1012 10 16 N/A
4:15 pm 16:15 Sunny 92 33.1 58 14.3 32 32 SSE 8 13 29.87 1012 10 16 N/A
4:35 pm 16:35 Sunny 92 33.4 55 12.7 28 28 SSE 10 17 29.87 1012 10 16 N/A
4:55 pm 16:55 Sunny 92 33.1 55 12.5 28 28 SSE 12 19 29.87 1012 10 16 N/A
5:15 pm 17:15 Sunny 92 33.5 55 12.5 28 28 S 10 17 29.87 1012 10 16 N/A
5:35 pm 17:35 Sunny 92 33.1 54 12 28 28 S 9 15 29.87 1012 10 16 N/A
5:55 pm 17:55 Sunny 91 32.9 54 12 28 28 SSE 9 15 29.87 1011 10 16 N/A
6:15 pm 18:15 Sunny 91 33 54 12 28 28 SSE 10 17 29.86 1011 10 16 N/A
6:35 pm 18:35 Sunny 91 32.7 53 11.7 28 28 SE 14 22 29.87 1011 10 16 N/A
6:55 pm 18:55 Sunny 90 32.2 53 11.9 29 29 SE 13 20 29.87 1012 10 16 N/A
7:15 pm 19:15 Sunny 89 31.9 53 11.7 29 29 SSE 12 19 29.87 1012 10 16 N/A
7:35 pm 19:35 Sunny 88 31.3 54 12.1 31 31 SE 9 15 29.88 1012 10 16 N/A
7:55 pm 19:55 Sunny 87 30.5 53 11.9 32 32 SSE 12 19 29.88 1012 10 16 N/A
8:15 pm 20:15 Sunny 84 29.1 55 12.5 36 36 SSE 8 13 29.90 1012 10 16 N/A
8:35 pm 20:35 Sunny 82 27.5 56 13.1 41 41 SSE 8 13 29.90 1012 10 16 N/A
8:55 pm 20:55 Sunny 80 26.5 56 13.4 44 44 SE 7 11 29.91 1013 10 16 N/A
9:15 pm 21:15 Clear 79 26.2 55 12.6 43 43 SE 8 13 29.91 1013 10 16 N/A
9:35 pm 21:35 Clear 78 25.5 54 12.3 44 44 SE 7 11 29.93 1013 10 16 N/A
9:55 pm 21:55 Clear 78 25.4 53 11.8 43 43 SSE 7 11 29.94 1014 10 16 N/A
10:15 pm 22:15 Clear 73 22.7 54 12.2 52 52 SSE 7 11 29.97 1015 10 16 N/A
10:35 pm 22:35 Clear 72 22.1 54 12.1 53 53 SE 7 11 29.99 1016 10 16 N/A
10:55 pm 22:55 Clear 72 22.1 53 11.7 52 52 SSE 6 9 29.99 1016 10 16 N/A
11:15 pm 23:15 Clear 70 21.3 54 12 56 56 SSE 7 11 29.99 1016 10 16 N/A
11:35 pm 23:35 Clear 70 21 54 12 57 57 SE 7 11 29.99 1016 10 16 N/A
11:55 pm 23:55 Clear 72 22.1 53 11.8 52 52 SSE 8 13 29.99 1016 10 16 N/A

Powered by AerisWeather